TimeCDT,TemperatureF,Dew PointF,Humidity,Sea Level PressureIn,VisibilityMPH,Wind Direction,Wind SpeedMPH,Gust SpeedMPH,PrecipitationIn,Events,Conditions,WindDirDegrees,DateUTC
12:53 AM,12.0,-0.0,59,30.20,10.0,NNW,6.9,-,N/A,,Clear,330,2013-03-17 05:53:00
1:21 AM,10.4,1.4,67,30.13,10.0,North,8.1,-,N/A,,Mostly Cloudy,360,2013-03-17 06:21:00
1:45 AM,10.4,1.4,67,30.13,10.0,North,5.8,-,N/A,,Scattered Clouds,350,2013-03-17 06:45:00
1:53 AM,10.0,1.0,67,30.23,10.0,NNW,3.5,-,N/A,,Partly Cloudy,340,2013-03-17 06:53:00
2:53 AM,7.0,-0.9,70,30.26,10.0,North,3.5,-,N/A,,Clear,360,2013-03-17 07:53:00
3:53 AM,5.0,-2.0,73,30.27,10.0,Calm,Calm,-,N/A,,Clear,0,2013-03-17 08:53:00
4:53 AM,1.0,-4.0,79,30.28,10.0,Calm,Calm,-,N/A,,Clear,0,2013-03-17 09:53:00
5:53 AM,-4.0,-6.0,91,30.29,5.0,Calm,Calm,-,N/A,,Clear,0,2013-03-17 10:53:00
6:53 AM,-4.0,-11.0,72,30.30,10.0,Calm,Calm,-,N/A,,Clear,0,2013-03-17 11:53:00
7:53 AM,-5.1,-9.9,80,30.30,10.0,Calm,Calm,-,N/A,,Clear,0,2013-03-17 12:53:00
8:53 AM,-0.0,-2.9,88,30.31,10.0,East,3.5,-,N/A,,Clear,90,2013-03-17 13:53:00
9:53 AM,8.1,-2.0,64,30.30,10.0,East,12.7,-,N/A,,Clear,80,2013-03-17 14:53:00
10:53 AM,12.0,-0.9,56,30.31,10.0,ESE,10.4,-,N/A,,Clear,110,2013-03-17 15:53:00
11:16 AM,14.0,-2.2,49,30.20,2.0,ESE,11.5,-,N/A,,Haze,120,2013-03-17 16:16:00
11:26 AM,14.0,-2.2,49,30.20,10.0,ESE,11.5,-,N/A,,Clear,120,2013-03-17 16:26:00
12:53 PM,18.0,-2.0,41,30.27,10.0,ESE,5.8,16.1,N/A,,Clear,120,2013-03-17 17:53:00
1:53 PM,21.0,-0.9,38,30.25,10.0,Variable,3.5,-,N/A,,Clear,0,2013-03-17 18:53:00
3:53 PM,24.1,-2.9,31,30.20,10.0,SSE,8.1,-,N/A,,Clear,150,2013-03-17 20:53:00
4:53 PM,25.0,-2.0,31,30.18,10.0,SSE,9.2,-,N/A,,Clear,150,2013-03-17 21:53:00
5:53 PM,24.1,-2.0,32,30.17,10.0,SE,5.8,-,N/A,,Clear,140,2013-03-17 22:53:00
6:53 PM,23.0,-0.0,37,30.15,10.0,SSE,8.1,-,N/A,,Clear,160,2013-03-17 23:53:00
7:53 PM,21.0,1.9,44,30.15,10.0,SSE,5.8,-,N/A,,Clear,150,2013-03-18 00:53:00
9:53 PM,19.0,7.0,59,30.12,10.0,SE,11.5,18.4,N/A,,Partly Cloudy,140,2013-03-18 02:53:00
10:53 PM,17.1,7.0,65,30.11,10.0,SE,5.8,-,N/A,,Clear,140,2013-03-18 03:53:00
11:53 PM,15.1,7.0,70,30.08,10.0,SE,8.1,-,N/A,,Clear,130,2013-03-18 04:53:00